This is the latest recevied weather packets stored in our database for station/object CE4JVU-10. If no packets are shown the sender has not sent any weather packets the latest 10 day(s).
| Time | Temp. | Humidity | Pressure | Rain* | Wind** | Luminosity | Snow |
|---|---|---|---|---|---|---|---|
| 1777956914 | 17.22° C | 57% | 979.3 hPa | - | - | - | - |
| 1777955116 | 17.22° C | 56% | 979.4 hPa | - | - | - | - |
| 1777953316 | 17.22° C | 55% | 979.8 hPa | - | - | - | - |
| 1777951515 | 17.78° C | 55% | 979.8 hPa | - | - | - | - |
| 1777949715 | 17.78° C | 55% | 979.5 hPa | - | - | - | - |
| 1777947915 | 17.78° C | 54% | 979.3 hPa | - | - | - | - |
| 1777946115 | 17.22° C | 56% | 979.2 hPa | - | - | - | - |
| 1777944315 | 17.22° C | 54% | 979.4 hPa | - | - | - | - |
| 1777942515 | 17.22° C | 51% | 979.3 hPa | - | - | - | - |
| 1777940715 | 17.22° C | 51% | 979.3 hPa | - | - | - | - |
| 1777938915 | 17.22° C | 49% | 979.1 hPa | - | - | - | - |
| 1777937115 | 16.67° C | 53% | 978.8 hPa | - | - | - | - |
| 1777935315 | 17.22° C | 49% | 979 hPa | - | - | - | - |
| 1777933516 | 18.33° C | 44% | 978.9 hPa | - | - | - | - |
| 1777931716 | 19.44° C | 44% | 978.7 hPa | - | - | - | - |
| 1777929915 | 19.44° C | 48% | 978.9 hPa | - | - | - | - |
| 1777928115 | 18.89° C | 45% | 979.1 hPa | - | - | - | - |
| 1777926315 | 18.89° C | 49% | 979.2 hPa | - | - | - | - |
| 1777924515 | 18.33° C | 48% | 979.7 hPa | - | - | - | - |
| 1777922715 | 18.33° C | 48% | 979.8 hPa | - | - | - | - |
| 1777920915 | 18.33° C | 49% | 980 hPa | - | - | - | - |
| 1777919115 | 17.78° C | 48% | 980.5 hPa | - | - | - | - |
| 1777917315 | 17.22° C | 50% | 980.9 hPa | - | - | - | - |
| 1777915515 | 17.22° C | 49% | 981 hPa | - | - | - | - |
| 1777913714 | 17.22° C | 50% | 981.4 hPa | - | - | - | - |
* Rain since midnight (hover to see other rain measurements)
** Current wind speed in m/s (hover to see current wind gust speed)